This demonstration page uses our WeatherBlox Daily Observations layout. Learn more.

Left ArrowRight Arrow

Hourly Observations for May 24, 2015

Temp ( °F °C ) Dew Point ( °F °C ) Humidity (%) Winds ( mph kmh ) Pressure ( in mb ) Visibility ( mi km ) Precip ( " mm )
12:53 am 00:53 Partly Cloudy 75 23.9 64 17.8 69 69 ESE 7 11 30.02 1017 10 16 0.00 0.00
1:53 am 01:53 Mostly Clear 74 23.3 65 18.3 74 74 ESE 5 7 30.01 1016 10 16 0.00 0.00
2:53 am 02:53 Partly Cloudy 74 23.3 62 16.7 67 67 Calm 30.00 1016 10 16 0.00 0.00
3:11 am 03:11 Mostly Cloudy 73 23 63 17 69 69 Calm 30.00 1016 10 16 0.00 0.00
3:53 am 03:53 Cloudy 75 23.9 64 17.8 69 69 Calm 30.00 1016 10 16 0.00 0.00
4:39 am 04:39 Partly Cloudy 75 24 64 18 69 69 Calm 30.00 1016 10 16 0.00 0.00
4:53 am 04:53 Mostly Clear 74 23.3 64 17.8 71 71 Calm 30.00 1016 10 16 0.00 0.00
5:53 am 05:53 Mostly Cloudy 73 22.8 65 18.3 76 76 N 3 6 30.01 1016 10 16 0.00 0.00
6:53 am 06:53 Mostly Cloudy 75 23.9 64 17.8 69 69 Calm 30.02 1017 10 16 0.00 0.00
7:53 am 07:53 Mostly Cloudy 76 24.4 63 17.2 64 64 N 7 11 30.03 1017 10 16 0.00 0.03
8:53 am 08:53 Mostly Sunny 80 26.7 63 17.2 56 56 NNW 10 17 30.03 1017 10 16 0.00 0.00
9:53 am 09:53 Partly Cloudy 81 27.2 64 17.8 57 57 NNW 15 24 30.02 1017 10 16 0.00 0.00
10:53 am 10:53 Partly Cloudy 82 27.8 63 17.2 53 53 NNW 14 22 30.01 1016 10 16 0.00 0.00
11:53 am 11:53 Mostly Sunny 83 28.3 64 17.8 53 53 NNW 13 20 30.00 1016 10 16 0.00 0.00
12:53 pm 12:53 Sunny 84 28.9 64 17.8 51 51 NNW 17 28 29.98 1015 10 16 0.00 0.00
1:53 pm 13:53 Mostly Cloudy 83 28.3 63 17.2 51 51 NNW 12 19 29.96 1015 10 16 0.00 0.00
2:53 pm 14:53 Sunny 84 28.9 63 17.2 49 49 NNW 13 20 29.95 1014 10 16 0.00 0.00
3:53 pm 15:53 Sunny 84 28.9 62 16.7 48 48 NNW 16 26 29.93 1014 10 16 0.00 0.00
4:53 pm 16:53 Sunny 83 28.3 61 16.1 48 48 NW 10 17 29.94 1014 10 16 0.00 0.00
5:53 pm 17:53 Mostly Sunny 81 27.2 62 16.7 53 53 NNW 13 20 29.94 1014 10 16 0.00 0.00
6:53 pm 18:53 Cloudy 79 26.1 63 17.2 58 58 N 13 20 29.96 1014 10 16 0.00 0.00
7:53 pm 19:53 Mostly Cloudy 78 25.6 62 16.7 58 58 N 6 9 29.97 1015 10 16 0.00 0.00
8:53 pm 20:53 Cloudy 78 25.6 63 17.2 60 60 S 5 7 29.99 1016 10 16 0.00 0.00
9:53 pm 21:53 Mostly Cloudy 77 25 68 20 74 74 SE 14 22 30.00 1016 10 16 0.00 0.00
10:53 pm 22:53 Mostly Cloudy 76 24.4 66 18.9 72 72 ESE 9 15 30.00 1016 10 16 0.00 0.00
11:53 pm 23:53 Mostly Clear 75 23.9 64 17.8 69 69 SE 7 11 29.98 1015 10 16 0.00 0.00

Powered by Vaisala Xweather